Estación de Contra Coronel
Ultimos registro cada 15 minutos 49
| N° | Estación | Fecha / Hora | Temperatura | Humedad | Lluvia | Velocidad | Dirección | Radiación | Presion |
| 49 | Contra Coronel | 04-09-2026 12:00 | 12,2 | 73,3 | 0 | 2 | 300 | 436,9 | 1023,5 |
| 48 | Contra Coronel | 04-09-2026 11:45 | 13,5 | 67,5 | 0 | 2,3 | 286 | 576,9 | 1023,7 |
| 47 | Contra Coronel | 04-09-2026 11:30 | 12 | 71,5 | 0 | 0,7 | 230 | 335,6 | 1023,6 |
| 46 | Contra Coronel | 04-09-2026 11:15 | 12,4 | 70,7 | 0 | 1 | 265 | 595,6 | 1023,8 |
| 45 | Contra Coronel | 04-09-2026 11:00 | 11,1 | 77,2 | 0 | 0,3 | 230 | 515,6 | 1023,8 |
| 44 | Contra Coronel | 04-09-2026 10:45 | 10,5 | 78,2 | 0 | 0,7 | 271 | 296,9 | 1023,9 |
| 43 | Contra Coronel | 04-09-2026 10:30 | 9,9 | 79,4 | 0 | 1 | 271 | 256,9 | 1024 |
| 42 | Contra Coronel | 04-09-2026 10:15 | 9,5 | 81,5 | 0 | 0,3 | 192 | 244,4 | 1024,1 |
| 41 | Contra Coronel | 04-09-2026 10:00 | 9,3 | 80,6 | 0 | 0,7 | 254 | 236,9 | 1023,9 |
| 40 | Contra Coronel | 04-09-2026 09:45 | 9,8 | 78,9 | 0 | 0,3 | 270 | 201,9 | 1023,9 |
| 39 | Contra Coronel | 04-09-2026 09:30 | 10,2 | 80,3 | 0 | 0,3 | 202 | 354,4 | 1023,8 |
| 38 | Contra Coronel | 04-09-2026 09:15 | 8,6 | 86,1 | 0 | 0 | 312 | 406,9 | 1023,8 |
| 37 | Contra Coronel | 04-09-2026 09:00 | 6,9 | 92,1 | 0 | 0 | 316 | 113,1 | 1023,7 |
| 36 | Contra Coronel | 04-09-2026 08:45 | 7,4 | 90,8 | 0 | 0,7 | 344 | 266,9 | 1023,6 |
| 35 | Contra Coronel | 04-09-2026 08:30 | 6,3 | 94,4 | 0 | 0 | 0 | 85,6 | 1023,6 |
| 34 | Contra Coronel | 04-09-2026 08:15 | 6,2 | 96,6 | 0 | 0,7 | 320 | 200,6 | 1023,3 |
| 33 | Contra Coronel | 04-09-2026 08:00 | 5,2 | 97,5 | 0 | 0,3 | 306 | 56,9 | 1023,3 |
| 32 | Contra Coronel | 04-09-2026 07:45 | 4,8 | 98 | 0 | 0 | 341 | 31,9 | 1023,5 |
| 31 | Contra Coronel | 04-09-2026 07:30 | 4,5 | 98,6 | 0 | 0 | 341 | 14,4 | 1023,4 |
| 30 | Contra Coronel | 04-09-2026 07:15 | 4,3 | 98,9 | 0 | 0 | 341 | 1,9 | 1023,3 |
| 29 | Contra Coronel | 04-09-2026 07:00 | 4,2 | 98,9 | 0 | 0 | 341 | 0,6 | 1023,3 |
| 28 | Contra Coronel | 04-09-2026 06:45 | 4,2 | 98,9 | 0 | 0 | 341 | 0,6 | 1023,2 |
| 27 | Contra Coronel | 04-09-2026 06:30 | 4,3 | 99,1 | 0 | 0 | 341 | 0,6 | 1023,3 |
| 26 | Contra Coronel | 04-09-2026 06:15 | 4,2 | 99,1 | 0 | 0 | 341 | 0,6 | 1023,3 |
| 25 | Contra Coronel | 04-09-2026 06:00 | 4,2 | 99,2 | 0 | 0 | 341 | 0,6 | 1023,2 |
| 24 | Contra Coronel | 04-09-2026 05:45 | 4,2 | 99,2 | 0 | 0 | 341 | 0,6 | 1023,1 |
| 23 | Contra Coronel | 04-09-2026 05:30 | 4,2 | 99,1 | 0 | 0 | 341 | 0,6 | 1023,1 |
| 22 | Contra Coronel | 04-09-2026 05:15 | 4 | 99,3 | 0 | 0 | 341 | 0,6 | 1023,2 |
| 21 | Contra Coronel | 04-09-2026 05:00 | 3,9 | 99,3 | 0 | 0 | 341 | 0,6 | 1023,3 |
| 20 | Contra Coronel | 04-09-2026 04:45 | 3,7 | 99,2 | 0 | 0 | 341 | 0,6 | 1023,2 |
| 19 | Contra Coronel | 04-09-2026 04:30 | 3,7 | 99 | 0 | 0 | 341 | 0,6 | 1023,2 |
| 18 | Contra Coronel | 04-09-2026 04:15 | 3,9 | 99 | 0 | 0 | 341 | 0,6 | 1023,2 |
| 17 | Contra Coronel | 04-09-2026 04:00 | 4 | 99,1 | 0 | 0 | 341 | 0,6 | 1023 |
| 16 | Contra Coronel | 04-09-2026 03:45 | 4 | 99 | 0 | 0 | 341 | 0,6 | 1023,1 |
| 15 | Contra Coronel | 04-09-2026 03:30 | 4,2 | 98,7 | 0 | 0 | 341 | 0,6 | 1023,2 |
| 14 | Contra Coronel | 04-09-2026 03:15 | 4,7 | 98,9 | 0 | 0 | 341 | 0,6 | 1023,5 |
| 13 | Contra Coronel | 04-09-2026 03:00 | 4,6 | 99 | 0 | 0 | 341 | 0,6 | 1023,8 |
| 12 | Contra Coronel | 04-09-2026 02:45 | 4,5 | 99,1 | 0 | 0 | 341 | 0,6 | 1023,8 |
| 11 | Contra Coronel | 04-09-2026 02:30 | 4,4 | 99,1 | 0 | 0 | 341 | 0,6 | 1023,8 |
| 10 | Contra Coronel | 04-09-2026 02:15 | 4,3 | 99,1 | 0 | 0 | 341 | 0,6 | 1023,8 |
| 9 | Contra Coronel | 04-09-2026 02:00 | 4 | 99,1 | 0 | 0 | 341 | 0,6 | 1023,8 |
| 8 | Contra Coronel | 04-09-2026 01:45 | 4,2 | 99 | 0 | 0 | 341 | 0,6 | 1023,8 |
| 7 | Contra Coronel | 04-09-2026 01:30 | 4,3 | 99 | 0 | 0 | 271 | 0,6 | 1023,8 |
| 6 | Contra Coronel | 04-09-2026 01:15 | 4,2 | 99 | 0 | 0 | 271 | 0,6 | 1023,9 |
| 5 | Contra Coronel | 04-09-2026 01:00 | 4,1 | 98,6 | 0 | 0 | 271 | 0,6 | 1024 |
| 4 | Contra Coronel | 04-09-2026 00:45 | 3,7 | 98,4 | 0 | 0 | 271 | 0,6 | 1024,1 |
| 3 | Contra Coronel | 04-09-2026 00:30 | 3,8 | 98 | 0 | 0 | 271 | 0,6 | 1024,1 |
| 2 | Contra Coronel | 04-09-2026 00:15 | 4,3 | 97,6 | 0 | 0 | 271 | 0,6 | 1024,2 |
| 1 | Contra Coronel | 04-09-2026 00:00 | 5,1 | 97,3 | 0 | 0 | 271 | 0,6 | 1024,2 |